Weather in Kaynar

Kazakhstan     49°12′01″N   77°23′06″E
temp.,
°C
wind,
m/s
gust,
m/s
humid.,
%
clouds,
%
prec.,
mm/h
press.,
hPa
HPBL,
m
10 may, mon
mon1000:00+17w3750100 0.0 1009495
03:00+16ssw375040 0.0 1008582
06:00+13wsw487880 0.3 1009343
09:00+17wsw67430 0.0 10091468
12:00+19sw6630100 0.0 10082681
15:00+18w663638 0.1 10081264
18:00+17n985068 0.1 1008795
21:00+12n486049 0.2 1011457
11 may, tue
tue1100:00+10nne494619 0.2 1012301
03:00+9nne375028 0.0 1013324
06:00+8n4853100 0.0 1015394
09:00+9nne5747100 0.0 1016575
12:00+13nne663495 0.0 10161576
15:00+15n662999 0.0 10162271
18:00+14n772878 0.0 10172415
21:00+11nne694280 0.0 10191034
12 may, wed
wed1200:00+9n5104542 0.0 1020633
03:00+6nnw49655 0.0 1021372
06:00+5nnw4107416 0.1 1023506
09:00+10n9105170 0.1 10231633
12:00+11nnw81040100 0.3 10232247
15:00+13n8113393 0.0 10222579
18:00+14n8102814 0.0 10222519
21:00+10nnw47396 0.0 1024140
13 may, thu
thu1300:00+8w224545 0.0 102310
03:00+8wsw225059 0.0 102214
06:00+9w4115091 0.0 1021291
09:00+12nw6957100 0.0 10201001
12:00+10nw7972100 0.3 1019880
15:00+10nnw6970100 0.8 10191267
18:00+11n796197 1.1 10191304
21:00+9nnw5106051 0.1 1021481
14 may, fri
fri1400:00+6wnw33685 0.1 102147
03:00+5nw22735 0.0 102216
06:00+5nw22772 0.0 102346
09:00+10n79419 0.0 10231348
12:00+13n79335 0.0 10221660
15:00+16n79275 0.0 10221907
18:00+15n78376 0.0 10221836
21:00+12n48585 0.0 1025262